SP9INZ-13 Weather Reports


Display with metric or nautical units.
time (UTC)temp
F
wind
direction
speed
MPH
gust
MPH
rain 1hr
in
rain 24hr
in
rain mn
in
humidity
%
barometer
mb
20260504150751 83 0.0 0.0 0.00 0.00 0.00 27 1013.3
20260504140359 79 0.0 0.0 0.00 0.00 0.00 29 1015.0
20260504100429 74 0.0 0.0 0.00 0.00 0.00 31 1018.2
20260504081243 70 0.0 0.0 0.00 0.00 0.00 35 1019.1
20260504050107 59 0.0 0.0 0.00 0.00 0.00 46 1021.2
20260504044509 58 0.0 0.0 0.00 0.00 0.00 46 1021.4
20260504042911 58 0.0 0.0 0.00 0.00 0.00 48 1021.2
20260504041313 58 0.0 0.0 0.00 0.00 0.00 49 1021.2
20260504035715 58 0.0 0.0 0.00 0.00 0.00 48 1021.2
20260504034117 59 0.0 0.0 0.00 0.00 0.00 47 1020.8
20260504032519 58 0.0 0.0 0.00 0.00 0.00 47 1021.0
20260504030921 59 0.0 0.0 0.00 0.00 0.00 47 1020.6
20260504025323 59 0.0 0.0 0.00 0.00 0.00 48 1020.8
20260504023725 59 0.0 0.0 0.00 0.00 0.00 46 1020.6
20260504022128 59 0.0 0.0 0.00 0.00 0.00 46 1020.9
20260504020529 59 0.0 0.0 0.00 0.00 0.00 47 1021.0
20260504014931 60 0.0 0.0 0.00 0.00 0.00 46 1020.9
20260504013333 61 0.0 0.0 0.00 0.00 0.00 43 1020.8
20260504011734 61 0.0 0.0 0.00 0.00 0.00 44 1020.8
20260504010137 61 0.0 0.0 0.00 0.00 0.00 44 1020.8
20260504004643 61 0.0 0.0 0.00 0.00 0.00 43 1020.9
20260504004538 61 0.0 0.0 0.00 0.00 0.00 43 1020.9
20260504002941 62 0.0 0.0 0.00 0.00 0.00 43 1020.9
20260504001343 61 0.0 0.0 0.00 0.00 0.00 44 1021.0
20260503235744 62 0.0 0.0 0.00 0.00 0.00 44 1020.9
20260503234426 62 0.0 0.0 0.00 0.00 0.00 44 1021.0
20260503234146 62 0.0 0.0 0.00 0.00 0.00 44 1021.0
20260503232549 62 0.0 0.0 0.00 0.00 0.00 44 1021.1
20260503230950 63 0.0 0.0 0.00 0.00 0.00 42 1021.1
20260503225353 63 0.0 0.0 0.00 0.00 0.00 42 1021.1
20260503223754 64 0.0 0.0 0.00 0.00 0.00 41 1021.0
20260503222157 64 0.0 0.0 0.00 0.00 0.00 40 1021.0
20260503220558 64 0.0 0.0 0.00 0.00 0.00 40 1021.3
20260503215002 65 0.0 0.0 0.00 0.00 0.00 39 1021.2
20260503213403 66 0.0 0.0 0.00 0.00 0.00 38 1020.9
20260503211806 67 0.0 0.0 0.00 0.00 0.00 37 1020.7
20260503210208 67 0.0 0.0 0.00 0.00 0.00 37 1020.6
20260503204849 67 0.0 0.0 0.00 0.00 0.00 37 1020.5
20260503204609 67 0.0 0.0 0.00 0.00 0.00 37 1020.5
20260503203013 68 0.0 0.0 0.00 0.00 0.00 38 1020.2
20260503201414 69 0.0 0.0 0.00 0.00 0.00 38 1019.8
20260503195815 70 0.0 0.0 0.00 0.00 0.00 38 1019.6
20260503194217 70 0.0 0.0 0.00 0.00 0.00 37 1019.5
20260503192619 71 0.0 0.0 0.00 0.00 0.00 36 1019.4
20260503191754 71 0.0 0.0 0.00 0.00 0.00 36 1019.3
20260503191022 71 0.0 0.0 0.00 0.00 0.00 36 1019.3
20260503185424 72 0.0 0.0 0.00 0.00 0.00 35 1019.0
20260503183825 73 0.0 0.0 0.00 0.00 0.00 34 1018.9
20260503182227 74 0.0 0.0 0.00 0.00 0.00 33 1018.7
20260503180629 75 0.0 0.0 0.00 0.00 0.00 31 1018.4
20260503175031 75 0.0 0.0 0.00 0.00 0.00 32 1018.3
20260503173433 78 0.0 0.0 0.00 0.00 0.00 29 1017.7
20260503171835 79 0.0 0.0 0.00 0.00 0.00 26 1017.8
20260503170237 81 0.0 0.0 0.00 0.00 0.00 27 1017.0